708  
FPUS82 KCHS 230727  
OPUCHS  
 
TEST   
..KCHS/KSAV GATEWAY OBSERVATIONS
 
TEST  
NATIONAL WEATHER SERVICE CHARLESTON SC  
300 AM EDT WED AUG 23 2017  
 
NOTE: "FAIR" INDICATES FEW OR NO CLOUDS BELOW 12,000 FEET WITH NO  
SIGNIFICANT WEATHER AND/OR OBSTRUCTIONS TO VISIBILITY.  
 
SCZ050-WAZ558-NCZ071-TXZ119-213-PAZ071-DCZ001-FLZ074-172-MI076-  
NYZ176-178-MAZ016-IL014-TNZ027-NJZ106-GAZ044-MD014-230800-  
   
..GATEWAY OBSERVATIONS FOR CHARLESTON INTERNATIONAL
 
 
 
CITY SKY/WX TMP DP RH WIND PRES REMARKS  
CHAS AIRPORT MOCLDY 77 76 96 SW5 29.97S  
SEATTLE CLEAR 63 57 81 S9 30.04S  
CHARLOTTE CLEAR 77 74 90 SW8 29.94F  
DALLAS DFW CLOUDY 86 71 60 NW13G23 29.99R HX 91  
DALLAS LOVE CLOUDY 86 70 58 NW9 29.98S HX 90  
PHILLADELPHIA CLOUDY 76 73 91 SW12 29.79F  
WASH NATIONAL CLOUDY 80 69 69 NW3 29.81F  
BALTIMORE MOCLDY 77 70 79 SW7 29.80F  
MIAMI MOCLDY 80 75 84 CALM 29.94F  
DETROIT PTCLDY 60 53 77 W6 29.93S  
NEWARK CLOUDY 73 71 93 SW9 29.76F  
LAGUARDIA CLOUDY 74 72 93 SW13G22 29.75F  
J F K CLOUDY 74 74 100 SW14 29.78S  
BOSTON LOGAN CLOUDY 75 73 93 SW10 29.68F  
FT. LAUDERDALE PTCLDY 81 74 79 CALM 29.94F  
CHICAGO O'HARE CLEAR 63 50 62 W9 30.01S  
CHICAGO MIDWAY CLEAR 64 52 64 NW6 30.01F  
HOUSTON BUSH PTCLDY 81 74 79 S3 29.99S  
HOUSTON HOBBY PTCLDY 81 74 79 CALM 29.98F  
NASHVILLE CLOUDY 72 70 93 W5 30.00F  
ATLANTA PTCLDY 77 72 84 SW5 29.99F  
 

 
 
GAZ044-118-TXZ119-213-NCZ071-DCZ001-MDZ014-506-PAZ021-071-NJZ106-  
NYZ176-178-MAZ106-OHZ011-021-055-MIZ076-KYZ091-ILZ014-INZ047-  
MNZ060-ONZ431-230800-  
   
..GATEWAY OBSERVATIONS FOR SAVANNAH INTERNATIONAL
 
 
 
CITY SKY/WX TMP DP RH WIND PRES REMARKS  
SAVANNAH ARPT CLEAR 76 75 97 W3 29.99S  
ATLANTA PTCLDY 77 72 84 SW5 29.99F  
CHARLOTTE CLEAR 77 74 90 SW8 29.94F  
DALLAS DFW CLOUDY 86 71 60 NW13G23 29.99R HX 91  
HOUSTON BUSH PTCLDY 81 74 79 S3 29.99S  
WASH NATIONAL CLOUDY 80 69 69 NW3 29.81F  
WASH DULLES CLOUDY 74 71 91 S3 29.82F  
BALTIMORE MOCLDY 77 70 79 SW7 29.80F  
PHILADELPHIA CLOUDY 76 73 91 SW12 29.79F  
NEWARK CLOUDY 73 71 93 SW9 29.76F  
LAGUARDIA CLOUDY 74 72 93 SW13G22 29.75F  
J F K CLOUDY 74 74 100 SW14 29.78S  
BOSTON CLOUDY 75 73 93 SW10 29.68F  
PITTSBURG MOCLDY 67 65 93 NW6 29.91R  
AKRON CLOUDY 66 63 90 NW7 29.93R  
CLEVELAND PTCLDY 66 55 67 NW6 29.93S  
CINCINNATI CLOUDY 69 65 86 N12 29.98S  
COLUMBUS CLOUDY 65 58 78 NW6 29.95S  
DETROIT PTCLDY 60 53 77 W6 29.93S  
CHICAGO O'HARE CLEAR 63 50 62 W9 30.01S  
MINNEAPOLIS CLEAR 60 48 64 NW5 30.06S  
INDIANAPOLIS PTCLDY 62 58 86 NW7 30.00S  
TORONTO CANADA CLEAR 59 55 88 W10 29.80R  
 

 
 
 
CLICK HERE TO GO TO PREVIOUS BULLETINS.

The Nexlab SC Page
The Nexlab GA Page Main Text Page